Tracking 22882 objects as of 18-Apr-2021
HD Live streaming from Space Station
objects crossing your sky now

COSMOS 614

Track COSMOS 614 now!
10-day predictions
COSMOS 614 is classified as:


NORAD ID: 6965
Int'l Code: 1973-098A
Perigee: 751.7 km
Apogee: 785.9 km
Inclination: 74.1 °
Period: 100.1 minutes
Semi major axis: 7139 km
RCS: 2.1152 m2 (large)
Launch date: December 4, 1973
Source: Commonwealth of Independent States (former USSR) (CIS)
Launch site: PLESETSK MISSILE AND SPACE COMPLEX (PKMTR)
aabbcc
Your satellite tracking list
Your tracking list is empty




NASA's NSSDC Master Catalog

Two Line Element Set (TLE):
1 06965U 73098A   21108.55017008  .00000017  00000-0  14134-4 0  9996
2 06965  74.0549 272.2439 0023912 311.7376  48.1733 14.39039237482989
Source of the keplerian elements: AFSPC